Tracking 19636 objects as of 24-May-2019
HD Live streaming from Space Station
objects crossing your sky now

PSLV R/B

Track PSLV R/B now!
10-day predictions
PSLV R/B is classified as:


NORAD ID: 41470
Int'l Code: 2016-027B
Perigee: 322.6 km
Apogee: 20,602.9 km
Inclination: 17.9 °
Period: 362.3 minutes
Semi major axis: 16833 km
RCS: Unknown
Launch date: April 28, 2016
Source: India (IND)
Launch site: SRIHARIKOTA (SRI)

Note: This is a ROCKET BODY
aabbcc
Your satellite tracking list
Your tracking list is empty




NASA's NSSDC Master Catalog

Two Line Element Set (TLE):
1 41470U 16027B   19143.15270641  .00000166  00000-0  12282-3 0  9997
2 41470  17.8720 115.2817 6023674  11.3412 357.6662  3.97494832 44392
Source of the keplerian elements: AFSPC